Terug naar catalogus

FENGYUN 1C DEB

ActiefPO
NORAD 29780·DEBRIS·🇨🇳 China

Gelanceerd May 10, 1999 vanaf Taiyuan Satellite Launch Center

Loading…

Volgende Passages (komende 24 uur)

TLE

VersSource: Space-Track

Epoch: Sep 14, 2026, 19:26 UTC

1 29780U 99025BW  26257.80984101  .00002565  00000-0  11541-2 0  9996
2 29780  99.2811 198.0335 0042784  64.7700 295.7902 14.22787479  9998

Volg FENGYUN 1C DEB in realtime met AllMySat

Download on the App Store